Weather History for Shreveport Downtown, LA

Change the Weather History Date:

Wednesday, February 13, 2013

  Actual Average (KSHV) Record (KSHV)
Temperature  
Mean Temperature 42 °F 50 °F  
Max Temperature 48 °F 61 °F 82 °F (1949)
Min Temperature 37 °F 39 °F -3 °F (1899)
Degree Days  
Heating Degree Days 22 15  
Month to date heating degree days 211  
Since 1 July heating degree days 1683  
Cooling Degree Days 0 0  
Month to date cooling degree days 0  
Year to date cooling degree days 4  
Moisture  
Dew Point 39 °F    
Average Humidity 81    
Maximum Humidity 93    
Minimum Humidity 66    
Precipitation  
Precipitation 0.00 in 0.17 in 1.45 in (1915)
Month to date precipitation 2.20  
Year to date precipitation 6.40  
Snow  
Snow 0.00 in - - ()
Month to date snowfall  
Since 1 July snowfall  
Snow Depth -    
Sea Level Pressure  
Sea Level Pressure 30.02 in    
Wind  
Wind Speed 9 mph (WNW)    
Max Wind Speed 15 mph    
Max Gust Speed 22 mph    
Visibility 10 miles    
Events      
T = Trace of Precipitation, MM = Missing Value Source: NWS Daily Summary

Daily Weather History Graph

Daily Weather History Graph

Search for Another Location

Airport:

Trip Planner

Search our weather history database for the weather conditions in past years. The results will help you decide how hot, cold, wet, or windy it might be!

Date:

Astronomy

Feb. 13, 2013 Rise Set
Actual Time 6:59 AM CST 5:59 PM CST
Civil Twilight 6:34 AM CST 6:24 PM CST
Nautical Twilight 6:05 AM CST 6:53 PM CST
Astronomical Twilight 5:36 AM CST 7:22 PM CST
Moon 8:44 AM CST (2/13) 9:45 PM CST (2/13)
Length of Visible Light 11h 50m
Length of Day
10h 59m
Waxing Crescent, 14% of the Moon is Illuminated
Feb 13
Waxing Crescent
Feb 17
First Quarter
Feb 25
Full
Mar 4
Last Quarter
Mar 11
New

Hourly Weather History & Observations

Time (CST) Temp. Windchill Dew Point Humidity Pressure Visibility Wind Dir Wind Speed Gust Speed Precip Events Conditions
12:00 AM 46.4 °F 41.9 °F 44.6 °F 93% 29.92 in 10.0 mi WNW 9.2 mph 19.6 mph N/A   Overcast
12:07 AM 46.4 °F 41.1 °F 44.6 °F 93% 29.92 in 10.0 mi WNW 11.5 mph 18.4 mph N/A   Overcast
12:28 AM 46.4 °F 40.4 °F 44.6 °F 93% 29.92 in 10.0 mi WNW 13.8 mph 20.7 mph N/A   Overcast
12:42 AM 46.4 °F 40.1 °F 44.6 °F 93% 29.91 in 10.0 mi NW 15.0 mph 21.9 mph N/A   Overcast
12:53 AM 46.0 °F 39.6 °F 44.1 °F 93% 29.91 in 10.0 mi NW 15.0 mph - N/A   Overcast
1:15 AM 44.6 °F 38.8 °F 42.8 °F 93% 29.92 in 10.0 mi WNW 11.5 mph - N/A   Mostly Cloudy
1:27 AM 44.6 °F 40.2 °F 42.8 °F 93% 29.93 in 10.0 mi WNW 8.1 mph 17.3 mph N/A   Mostly Cloudy
1:37 AM 46.4 °F 41.1 °F 42.8 °F 87% 29.93 in 10.0 mi WNW 11.5 mph - N/A   Mostly Cloudy
1:53 AM 46.0 °F 40.6 °F 43.0 °F 89% 29.94 in 10.0 mi WNW 11.5 mph - N/A   Overcast
2:21 AM 44.6 °F 39.2 °F 42.8 °F 93% 29.94 in 10.0 mi WNW 10.4 mph - N/A   Overcast
2:53 AM 45.0 °F 40.1 °F 42.1 °F 90% 29.96 in 10.0 mi NW 9.2 mph - N/A   Overcast
3:01 AM 44.6 °F 38.8 °F 42.8 °F 93% 29.96 in 10.0 mi NW 11.5 mph - N/A   Overcast
3:23 AM 44.6 °F 40.2 °F 41.0 °F 87% 29.97 in 10.0 mi NW 8.1 mph - N/A   Overcast
3:53 AM 45.0 °F 41.2 °F 41.0 °F 86% 29.98 in 10.0 mi WNW 6.9 mph - N/A   Overcast
4:53 AM 44.1 °F 40.1 °F 39.9 °F 85% 30.01 in 10.0 mi West 6.9 mph - N/A   Overcast
5:53 AM 44.1 °F 39.0 °F 39.9 °F 85% 30.02 in 10.0 mi WNW 9.2 mph - N/A   Overcast
6:53 AM 42.1 °F 36.6 °F 37.0 °F 82% 30.05 in 10.0 mi NNW 9.2 mph - N/A   Overcast
7:53 AM 43.0 °F 37.7 °F 37.0 °F 80% 30.07 in 10.0 mi NW 9.2 mph - N/A   Overcast
8:53 AM 43.0 °F 38.8 °F 37.0 °F 80% 30.10 in 10.0 mi NW 6.9 mph - N/A   Overcast
9:53 AM 45.0 °F 40.6 °F 37.0 °F 74% 30.12 in 10.0 mi NW 8.1 mph - N/A   Overcast
10:53 AM 46.0 °F 41.4 °F 37.0 °F 71% 30.13 in 10.0 mi NNW 9.2 mph - N/A   Mostly Cloudy
11:53 AM 46.0 °F 41.9 °F 37.0 °F 71% 30.11 in 10.0 mi NW 8.1 mph - N/A   Overcast
12:36 PM 46.4 °F 41.9 °F 37.4 °F 71% 30.10 in 10.0 mi NW 9.2 mph 16.1 mph N/A   Overcast
12:53 PM 46.9 °F - 37.9 °F 71% 30.10 in 10.0 mi NNW 10.4 mph - N/A   Overcast
1:53 PM 48.0 °F - 37.0 °F 66% 30.07 in 10.0 mi NW 9.2 mph - N/A   Overcast
2:50 PM 46.4 °F 41.9 °F 37.4 °F 71% 30.06 in 10.0 mi NW 9.2 mph - N/A   Overcast
2:53 PM 48.0 °F - 37.0 °F 66% 30.06 in 10.0 mi NW 8.1 mph - N/A   Overcast
3:53 PM 46.9 °F - 37.0 °F 68% 30.07 in 10.0 mi NW 6.9 mph - N/A   Overcast
4:34 PM 48.2 °F - 37.4 °F 66% 30.06 in 10.0 mi NW 6.9 mph - N/A   Overcast
4:53 PM 46.9 °F - 36.0 °F 66% 30.07 in 10.0 mi WNW 8.1 mph - N/A   Overcast
5:11 PM 44.6 °F - 35.6 °F 71% 30.07 in 10.0 mi Calm Calm - N/A   Scattered Clouds
5:53 PM 45.0 °F - 35.1 °F 68% 30.07 in 10.0 mi Calm Calm - N/A   Clear
6:53 PM 39.0 °F - 34.0 °F 82% 30.06 in 10.0 mi Calm Calm - N/A   Clear
7:53 PM 39.9 °F - 35.1 °F 83% 30.07 in 10.0 mi Calm Calm - N/A   Clear
8:53 PM 39.0 °F - 34.0 °F 82% 30.08 in 10.0 mi Calm Calm - N/A   Clear
9:53 PM 39.0 °F 36.8 °F 34.0 °F 82% 30.10 in 10.0 mi SW 3.5 mph - N/A   Clear
10:53 PM 37.9 °F 35.5 °F 34.0 °F 86% 30.09 in 10.0 mi SSW 3.5 mph - N/A   Clear
11:53 PM 39.0 °F 35.7 °F 35.1 °F 86% 30.09 in 10.0 mi SW 4.6 mph - N/A   Clear